Шураб

Таджикистан     40°02′48″N   70°32′38″E
темп.,
°C
ветер,
м/с
пор.,
м/с
влажн.,
%
обл.,
%
осадки,
мм/ч
давл.,
гПа
погр.,
м
23 октября, сб
сб2323:00+1всв117083 0.0 103512
02:000св127798 0.0 103618
05:00−1всв117786 0.0 103628
08:000вюв11693 0.0 1036178
11:00+4всв34533 0.0 1033735
14:00+7всв44420 0.0 1029967
17:00+6св34430 0.0 1028219
20:00+3вюв11480 0.0 103011
24 октября, вс
вс2423:00+2ю11490 0.0 102810
02:00+2ююз11520 0.0 102610
05:00+1ююз11520 0.0 102510
08:00+5ю11400 0.0 102427
11:00+9всв23260 0.0 1021545
14:00+11всв33210 0.0 1018742
17:00+10св22260 0.0 101825
20:00+6юв11330 0.0 101810
25 октября, пн
пн2523:00+5юв11330 0.0 101710
02:00+5юв11310 0.0 101610
05:00+4юв11310 0.0 101610
08:00+7юв11250 0.0 101711
11:00+12св21170 0.0 1017416
14:00+15св32160 0.0 1015671
17:00+12св22220 0.0 101612
20:00+8ю11270 0.0 101710
26 октября, вт
вт2623:00+7юз11270 0.0 101710
02:00+6з1127100 0.0 101710
05:00+6зюз1125100 0.0 101810
08:00+9з0122100 0.0 101910
11:00+14св2116100 0.0 1019522
14:00+14св211738 0.0 1018791
17:00+12св22222 0.0 101915
20:00+9юз11272 0.0 102110
27 октября, ср
ср2723:00+7ююз0130100 0.0 102110
02:00+7з113083 0.0 102110
05:00+6зюз1132100 0.0 102110
08:00+8св0029100 0.0 102210
11:00+11всв2124100 0.0 1022703
14:00+12зсз2229100 0.0 10211125
17:00+7з6861100 0.0 1024456
20:00+5зюз4570100 0.0 1026307